BADR-4

Last updated on Thu Sep 10 2026 00:02:56 GMT+0000 (Coordinated Universal Time)

1 29526U 06051A 26252.59242167 .00000136 00000+0 00000+0 0 9997 2 29526 2.2167 80.0906 0004979 93.7284 62.6035 1.00274832 52117
UTC large
Height (km)
Speed (km/s)
/
Latitude / Longitude
Inclination (degrees)
Orbital Period (minutes)
Azimuth
Elevation
Range (km)
Doppler Factor

Next 0 passes for location: London (51.5072 / 0.1276)

No passes found over London.
BADR-4